Voltar ao catálogo

RADUGA 31

AtivoMilitarGEO
NORAD 23010·PAYLOAD·🇷🇺 Russia

Lançado Feb 18, 1994 de Baikonur Cosmodrome

Loading…

TLE

AtualizadoSource: Space-Track

Época: Sep 12, 2026, 22:13 UTC

1 23010U 94012A   26255.92619395  .00000098  00000-0  00000+0 0  9992
2 23010  14.1014 347.5733 0001557 184.8711 197.9507  1.00255386119233

Acompanhe RADUGA 31 em tempo real com AllMySat

Download on the App Store